Time,TemperatureF,DewpointF,PressureIn,WindDirection,WindDirectionDegrees,WindSpeedMPH,WindSpeedGustMPH,Humidity,HourlyPrecipIn,Conditions,Clouds,dailyrainin,SolarRadiationWatts/m^2,SoftwareType,DateUTC
2013-03-04 00:01:00,31.0,22.0,-100.00,SW,226,4.0,13.0,70,0.00,,,0.07,0.000000,,2013-03-04 05:01:00,
2013-03-04 00:32:00,31.0,21.0,-100.00,SSW,212,5.0,12.0,67,0.00,,,0.07,0.000000,,2013-03-04 05:32:00,
2013-03-04 00:43:00,31.0,21.0,-100.00,SSW,212,5.0,12.0,67,0.00,,,0.07,0.000000,,2013-03-04 05:43:00,
2013-03-04 00:52:00,31.0,21.0,-100.00,SSW,212,5.0,12.0,67,0.00,,,0.07,0.000000,,2013-03-04 05:52:00,
2013-03-04 01:02:00,31.0,21.0,-100.00,SSW,212,5.0,12.0,67,0.00,,,0.07,0.000000,,2013-03-04 06:02:00,
2013-03-04 01:32:00,30.0,21.0,-100.00,South,175,4.0,13.0,69,0.00,,,0.07,0.000000,,2013-03-04 06:32:00,
2013-03-04 01:42:00,30.0,21.0,-100.00,South,175,4.0,13.0,69,0.00,,,0.07,0.000000,,2013-03-04 06:42:00,
2013-03-04 01:52:00,30.0,21.0,-100.00,South,175,4.0,13.0,69,0.00,,,0.07,0.000000,,2013-03-04 06:52:00,
2013-03-04 02:02:00,30.0,21.0,-100.00,South,175,4.0,13.0,69,0.00,,,0.07,0.000000,,2013-03-04 07:02:00,
2013-03-04 02:32:00,29.0,20.0,-100.00,SW,222,5.0,13.0,70,0.00,,,0.07,0.000000,,2013-03-04 07:32:00,
2013-03-04 02:42:00,29.0,20.0,-100.00,SW,222,5.0,13.0,70,0.00,,,0.07,0.000000,,2013-03-04 07:42:00,
2013-03-04 02:52:00,29.0,20.0,-100.00,SW,222,5.0,13.0,70,0.00,,,0.07,0.000000,,2013-03-04 07:52:00,
2013-03-04 03:02:00,29.0,20.0,-100.00,SW,222,5.0,13.0,70,0.00,,,0.07,0.000000,,2013-03-04 08:02:00,
2013-03-04 03:32:00,29.0,19.0,-100.00,South,188,4.0,14.0,67,0.00,,,0.07,0.000000,,2013-03-04 08:32:00,
2013-03-04 03:42:00,29.0,19.0,-100.00,South,188,4.0,14.0,67,0.00,,,0.07,0.000000,,2013-03-04 08:42:00,
2013-03-04 03:52:00,29.0,19.0,-100.00,South,188,4.0,14.0,67,0.00,,,0.07,0.000000,,2013-03-04 08:52:00,
2013-03-04 04:02:00,29.0,19.0,-100.00,South,188,4.0,14.0,67,0.00,,,0.07,0.000000,,2013-03-04 09:02:00,
2013-03-04 04:32:00,29.0,19.0,-100.00,SSW,208,6.0,12.0,66,0.00,,,0.07,0.000000,,2013-03-04 09:32:00,
2013-03-04 04:42:00,29.0,19.0,-100.00,SSW,208,6.0,12.0,66,0.00,,,0.07,0.000000,,2013-03-04 09:42:00,
2013-03-04 04:52:00,29.0,19.0,-100.00,SSW,208,6.0,12.0,66,0.00,,,0.07,0.000000,,2013-03-04 09:52:00,
2013-03-04 05:01:00,29.0,19.0,-100.00,SSW,208,6.0,12.0,66,0.00,,,0.07,0.000000,,2013-03-04 10:01:00,
2013-03-04 05:32:00,29.0,19.0,-100.00,SW,231,5.0,16.0,66,0.00,,,0.07,0.000000,,2013-03-04 10:32:00,
2013-03-04 05:42:00,29.0,19.0,-100.00,SW,231,5.0,16.0,66,0.00,,,0.07,0.000000,,2013-03-04 10:42:00,
2013-03-04 05:52:00,29.0,19.0,-100.00,SW,231,5.0,16.0,66,0.00,,,0.07,0.000000,,2013-03-04 10:52:00,
2013-03-04 06:02:00,29.0,19.0,-100.00,SW,231,5.0,16.0,66,0.00,,,0.07,0.000000,,2013-03-04 11:02:00,
2013-03-04 06:32:00,28.0,18.0,-100.00,SW,224,5.0,14.0,66,0.00,,,0.07,0.000000,,2013-03-04 11:32:00,
2013-03-04 06:42:00,28.0,18.0,-100.00,SW,224,5.0,14.0,66,0.00,,,0.07,0.000000,,2013-03-04 11:42:00,
2013-03-04 06:52:00,28.0,18.0,-100.00,SW,224,5.0,14.0,66,0.00,,,0.07,0.000000,,2013-03-04 11:52:00,
2013-03-04 07:02:00,28.0,18.0,-100.00,SW,224,5.0,14.0,66,0.00,,,0.07,0.000000,,2013-03-04 12:02:00,
2013-03-04 07:32:00,29.0,18.0,-100.00,SW,219,5.0,14.0,64,0.00,,,0.07,13.000000,,2013-03-04 12:32:00,
2013-03-04 07:43:00,29.0,18.0,-100.00,SW,219,5.0,14.0,64,0.00,,,0.07,13.000000,,2013-03-04 12:43:00,
2013-03-04 07:53:00,29.0,18.0,-100.00,SW,219,5.0,14.0,64,0.00,,,0.07,13.000000,,2013-03-04 12:53:00,
2013-03-04 08:02:00,29.0,18.0,-100.00,SW,219,5.0,14.0,64,0.00,,,0.07,13.000000,,2013-03-04 13:02:00,
2013-03-04 08:32:00,30.0,19.0,-100.00,SSW,208,4.0,16.0,62,0.00,,,0.07,39.000000,,2013-03-04 13:32:00,
2013-03-04 08:42:00,30.0,19.0,-100.00,SSW,208,4.0,16.0,62,0.00,,,0.07,39.000000,,2013-03-04 13:42:00,
2013-03-04 08:52:00,30.0,19.0,-100.00,SSW,208,4.0,16.0,62,0.00,,,0.07,39.000000,,2013-03-04 13:52:00,
2013-03-04 09:01:00,30.0,19.0,-100.00,SSW,208,4.0,16.0,62,0.00,,,0.07,39.000000,,2013-03-04 14:01:00,
2013-03-04 09:32:00,32.0,18.0,-100.00,SSW,212,4.0,16.0,55,0.00,,,0.04,115.000000,,2013-03-04 14:32:00,
2013-03-04 09:42:00,32.0,18.0,-100.00,SSW,212,4.0,16.0,55,0.00,,,0.04,115.000000,,2013-03-04 14:42:00,
2013-03-04 09:52:00,32.0,18.0,-100.00,SSW,212,4.0,16.0,55,0.00,,,0.04,115.000000,,2013-03-04 14:52:00,
2013-03-04 10:02:00,32.0,18.0,-100.00,SSW,212,4.0,16.0,55,0.00,,,0.04,115.000000,,2013-03-04 15:02:00,
2013-03-04 10:32:00,33.0,17.0,-100.00,SW,226,6.0,16.0,51,0.00,,,0.00,170.000000,,2013-03-04 15:32:00,
2013-03-04 10:42:00,33.0,17.0,-100.00,SW,226,6.0,16.0,51,0.00,,,0.00,170.000000,,2013-03-04 15:42:00,
2013-03-04 10:52:00,33.0,17.0,-100.00,SW,226,6.0,16.0,51,0.00,,,0.00,170.000000,,2013-03-04 15:52:00,
2013-03-04 11:03:00,33.0,17.0,-100.00,SW,226,6.0,16.0,51,0.00,,,0.00,170.000000,,2013-03-04 16:03:00,
2013-03-04 11:32:00,36.0,20.0,-100.00,SW,216,5.0,15.0,51,0.00,,,0.00,280.000000,,2013-03-04 16:32:00,
2013-03-04 11:42:00,36.0,20.0,-100.00,SW,216,5.0,15.0,51,0.00,,,0.00,280.000000,,2013-03-04 16:42:00,
2013-03-04 11:52:00,36.0,20.0,-100.00,SW,216,5.0,15.0,51,0.00,,,0.00,280.000000,,2013-03-04 16:52:00,
2013-03-04 12:02:00,36.0,20.0,-100.00,SW,216,5.0,15.0,51,0.00,,,0.00,280.000000,,2013-03-04 17:02:00,
2013-03-04 12:32:00,37.0,20.0,-100.00,SW,221,6.0,13.0,49,0.00,,,0.00,307.000000,,2013-03-04 17:32:00,
2013-03-04 12:42:00,37.0,20.0,-100.00,SW,221,6.0,13.0,49,0.00,,,0.00,307.000000,,2013-03-04 17:42:00,
2013-03-04 12:52:00,37.0,20.0,-100.00,SW,221,6.0,13.0,49,0.00,,,0.00,307.000000,,2013-03-04 17:52:00,
2013-03-04 13:02:00,37.0,20.0,-100.00,SW,221,6.0,13.0,49,0.00,,,0.00,307.000000,,2013-03-04 18:02:00,
2013-03-04 14:32:00,36.0,20.0,-100.00,SW,218,4.0,15.0,51,-99.99,,,0.00,232.000000,,2013-03-04 19:32:00,
2013-03-04 14:42:00,36.0,20.0,-100.00,SW,218,4.0,15.0,51,-99.99,,,0.00,232.000000,,2013-03-04 19:42:00,
2013-03-04 14:52:00,36.0,20.0,-100.00,SW,218,4.0,15.0,51,-99.99,,,0.00,232.000000,,2013-03-04 19:52:00,
2013-03-04 15:02:00,36.0,20.0,-100.00,SW,218,4.0,15.0,51,-99.99,,,0.00,232.000000,,2013-03-04 20:02:00,
2013-03-04 15:32:00,34.0,19.0,-100.00,South,190,4.0,14.0,54,0.00,,,0.00,171.000000,,2013-03-04 20:32:00,
2013-03-04 15:42:00,34.0,19.0,-100.00,South,190,4.0,14.0,54,0.00,,,0.00,171.000000,,2013-03-04 20:42:00,
2013-03-04 15:53:00,34.0,19.0,-100.00,South,190,4.0,14.0,54,0.00,,,0.00,171.000000,,2013-03-04 20:53:00,
2013-03-04 16:02:00,34.0,19.0,-100.00,South,190,4.0,14.0,54,0.00,,,0.00,171.000000,,2013-03-04 21:02:00,
2013-03-04 16:32:00,32.0,19.0,-100.00,SW,225,5.0,11.0,58,0.00,,,0.00,69.000000,,2013-03-04 21:32:00,
2013-03-04 16:43:00,32.0,19.0,-100.00,SW,225,5.0,11.0,58,0.00,,,0.00,69.000000,,2013-03-04 21:43:00,
2013-03-04 16:53:00,32.0,19.0,-100.00,SW,225,5.0,11.0,58,0.00,,,0.00,69.000000,,2013-03-04 21:53:00,
2013-03-04 17:02:00,32.0,19.0,-100.00,SW,225,5.0,11.0,58,0.00,,,0.00,69.000000,,2013-03-04 22:02:00,
2013-03-04 17:32:00,31.0,18.0,-100.00,SSW,212,4.0,10.0,59,0.00,,,0.00,14.000000,,2013-03-04 22:32:00,
2013-03-04 17:43:00,31.0,18.0,-100.00,SSW,212,4.0,10.0,59,0.00,,,0.00,14.000000,,2013-03-04 22:43:00,
2013-03-04 17:52:00,31.0,18.0,-100.00,SSW,212,4.0,10.0,59,0.00,,,0.00,14.000000,,2013-03-04 22:52:00,
2013-03-04 18:02:00,31.0,18.0,-100.00,SSW,212,4.0,10.0,59,0.00,,,0.00,14.000000,,2013-03-04 23:02:00,
2013-03-04 18:32:00,30.0,19.0,-100.00,SSW,206,4.0,6.0,62,0.00,,,0.00,2.000000,,2013-03-04 23:32:00,
2013-03-04 18:42:00,30.0,19.0,-100.00,SSW,206,4.0,6.0,62,0.00,,,0.00,2.000000,,2013-03-04 23:42:00,
2013-03-04 18:52:00,30.0,19.0,-100.00,SSW,206,4.0,6.0,62,0.00,,,0.00,2.000000,,2013-03-04 23:52:00,
2013-03-04 19:02:00,30.0,19.0,-100.00,SSW,206,4.0,6.0,62,0.00,,,0.00,2.000000,,2013-03-05 00:02:00,
2013-03-04 19:32:00,29.0,19.0,-100.00,South,185,2.0,8.0,66,0.00,,,0.00,0.000000,,2013-03-05 00:32:00,
2013-03-04 19:42:00,29.0,19.0,-100.00,South,185,2.0,8.0,66,0.00,,,0.00,0.000000,,2013-03-05 00:42:00,
2013-03-04 19:52:00,29.0,19.0,-100.00,South,185,2.0,8.0,66,0.00,,,0.00,0.000000,,2013-03-05 00:52:00,
2013-03-04 20:02:00,29.0,19.0,-100.00,South,185,2.0,8.0,66,0.00,,,0.00,0.000000,,2013-03-05 01:02:00,
2013-03-04 21:32:00,29.0,19.0,-100.00,SW,223,2.0,10.0,67,-99.99,,,0.00,0.000000,,2013-03-05 02:32:00,
2013-03-04 21:42:00,29.0,19.0,-100.00,SW,223,2.0,10.0,67,-99.99,,,0.00,0.000000,,2013-03-05 02:42:00,
2013-03-04 21:53:00,29.0,19.0,-100.00,SW,223,2.0,10.0,67,-99.99,,,0.00,0.000000,,2013-03-05 02:53:00,
2013-03-04 22:02:00,29.0,19.0,-100.00,SW,223,2.0,10.0,67,-99.99,,,0.00,0.000000,,2013-03-05 03:02:00,
2013-03-04 22:32:00,29.0,20.0,-100.00,WSW,250,2.0,7.0,68,0.00,,,0.00,0.000000,,2013-03-05 03:32:00,
2013-03-04 22:42:00,29.0,20.0,-100.00,WSW,250,2.0,7.0,68,0.00,,,0.00,0.000000,,2013-03-05 03:42:00,
2013-03-04 22:52:00,29.0,20.0,-100.00,WSW,250,2.0,7.0,68,0.00,,,0.00,0.000000,,2013-03-05 03:52:00,
2013-03-04 23:02:00,29.0,20.0,-100.00,WSW,250,2.0,7.0,68,0.00,,,0.00,0.000000,,2013-03-05 04:02:00,
2013-03-04 23:32:00,29.0,20.0,-100.00,NNE,27,3.0,7.0,68,0.00,,,0.00,0.000000,,2013-03-05 04:32:00,
2013-03-04 23:42:00,29.0,20.0,-100.00,NNE,27,3.0,7.0,68,0.00,,,0.00,0.000000,,2013-03-05 04:42:00,
2013-03-04 23:52:00,29.0,20.0,-100.00,NNE,27,3.0,7.0,68,0.00,,,0.00,0.000000,,2013-03-05 04:52:00,